This is the latest recevied weather packets stored in our database for station/object p43g-13. If no packets are shown the sender has not sent any weather packets the latest 10 day(s).
| Time | Temp. | Humidity | Pressure | Rain* | Wind** | Luminosity | Snow |
|---|---|---|---|---|---|---|---|
| 1787698343 | 29.44° C | 82% | 1010 hPa | 0 mm | - | 5 W/m² | - |
| 1787698043 | 29.44° C | 82% | 1010.1 hPa | 0 mm | - | 9 W/m² | - |
| 1787697742 | 29.44° C | 82% | 1010.2 hPa | 0 mm | - | 13 W/m² | - |
| 1787697443 | 29.44° C | 82% | 1010.2 hPa | 0 mm | - | 19 W/m² | - |
| 1787697131 | 29.44° C | 82% | 1010.3 hPa | 0 mm | - | 26 W/m² | - |
| 1787696832 | 29.44° C | 82% | 1010.1 hPa | 0 mm | - | 32 W/m² | - |
| 1787696531 | 29.44° C | 82% | 1010 hPa | 0 mm | - | 38 W/m² | - |
| 1787696219 | 29.44° C | 81% | 1009.8 hPa | 0 mm | - | 44 W/m² | - |
| 1787695919 | 30° C | 80% | 1009.8 hPa | 0 mm | - | 51 W/m² | - |
| 1787695619 | 30° C | 81% | 1009.9 hPa | 0 mm | - | 70 W/m² | - |
| 1787695307 | 30° C | 80% | 1009.8 hPa | 0 mm | - | 73 W/m² | - |
| 1787695007 | 30° C | 80% | 1009.8 hPa | 0 mm | - | 72 W/m² | - |
| 1787694706 | 30° C | 79% | 1009.7 hPa | 0 mm | - | 85 W/m² | - |
| 1787694394 | 30° C | 79% | 1009.9 hPa | 0 mm | - | 94 W/m² | - |
| 1787694094 | 30° C | 79% | 1009.8 hPa | 0 mm | - | 107 W/m² | - |
| 1787693794 | 30.56° C | 78% | 1009.9 hPa | 0 mm | - | 122 W/m² | - |
| 1787693482 | 30.56° C | 78% | 1009.8 hPa | 0 mm | - | 133 W/m² | - |
| 1787693182 | 30.56° C | 77% | 1009.8 hPa | 0 mm | - | 91 W/m² | - |
| 1787692882 | 30.56° C | 77% | 1009.9 hPa | 0 mm | - | 162 W/m² | - |
| 1787692570 | 30.56° C | 77% | 1009.8 hPa | 0 mm | - | 183 W/m² | - |
| 1787692270 | 30.56° C | 77% | 1009.8 hPa | 0 mm | - | 206 W/m² | - |
| 1787691970 | 30.56° C | 76% | 1009.9 hPa | 0 mm | - | 224 W/m² | - |
| 1787691658 | 31.11° C | 76% | 1010 hPa | 0 mm | - | 260 W/m² | - |
| 1787691358 | 31.11° C | 75% | 1010.1 hPa | 0 mm | - | 282 W/m² | - |
| 1787691058 | 31.11° C | 76% | 1010 hPa | 0 mm | - | 287 W/m² | - |
* Rain latest hour (hover to see other rain measurements)
** Current wind speed in m/s (hover to see current wind gust speed)